• In Hungary
  • List of Countries
  • For 7 days
  • Water Temperature
  • Satellite Maps
  • Weather Map
  • News
  • Weather Widgets
  • user-avatar
    Login

    Hourly Weather Makadi Bey

    Today, 26 September, Tuesday

    Time Temperature Precipitation Wind Pressure Humidity
    00:00 +27°C° 0 mm 2 mps 706 mmHg 38%
    01:00 +27°C° 0 mm 2 mps 705 mmHg 38%
    02:00 +26°C° 0 mm 2 mps 705 mmHg 39%
    03:00 +26°C° 0 mm 2 mps 705 mmHg 40%
    04:00 +25°C° 0 mm 2 mps 705 mmHg 41%
    05:00 +25°C° 0 mm 2 mps 705 mmHg 42%
    06:00 +26°C° 0 mm 2 mps 705 mmHg 38%
    07:00 +28°C° 0 mm 2 mps 706 mmHg 35%
    08:00 +29°C° 0 mm 2 mps 706 mmHg 31%
    09:00 +31°C° 0 mm 3 mps 707 mmHg 26%
    10:00 +34°C° 0 mm 3 mps 707 mmHg 21%
    11:00 +35°C° 0 mm 3 mps 707 mmHg 17%
    12:00 +36°C° 0 mm 3 mps 707 mmHg 15%
    13:00 +37°C° 0 mm 4 mps 707 mmHg 14%
    14:00 +38°C° 0 mm 4 mps 706 mmHg 13%
    15:00 +37°C° 0 mm 4 mps 706 mmHg 14%
    16:00 +36°C° 0 mm 4 mps 706 mmHg 16%
    17:00 +35°C° 0 mm 4 mps 706 mmHg 17%
    18:00 +34°C° 0 mm 4 mps 706 mmHg 21%
    19:00 +32°C° 0 mm 4 mps 706 mmHg 25%
    20:00 +29°C° 0 mm 3 mps 706 mmHg 29%
    21:00 +29°C° 0 mm 3 mps 706 mmHg 29%
    22:00 +28°C° 0 mm 3 mps 707 mmHg 29%
    23:00 +28°C° 0 mm 2 mps 707 mmHg 29%

    Tomorrow, 27 September, Wednesday

    Time Temperature Precipitation Wind Pressure Humidity
    00:00 +27°C° 0 mm 2 mps 707 mmHg 29%
    01:00 +27°C° 0 mm 2 mps 706 mmHg 30%
    02:00 +26°C° 0 mm 2 mps 706 mmHg 30%
    03:00 +26°C° 0 mm 2 mps 706 mmHg 31%
    04:00 +25°C° 0 mm 3 mps 706 mmHg 32%
    05:00 +25°C° 0 mm 3 mps 706 mmHg 32%
    06:00 +26°C° 0 mm 3 mps 707 mmHg 29%
    07:00 +28°C° 0 mm 3 mps 707 mmHg 25%
    08:00 +29°C° 0 mm 3 mps 708 mmHg 22%
    09:00 +31°C° 0 mm 3 mps 708 mmHg 19%
    10:00 +34°C° 0 mm 4 mps 708 mmHg 16%
    11:00 +36°C° 0 mm 4 mps 709 mmHg 13%
    12:00 +36°C° 0 mm 4 mps 708 mmHg 13%
    13:00 +37°C° 0 mm 4 mps 708 mmHg 13%
    14:00 +38°C° 0 mm 4 mps 707 mmHg 12%
    15:00 +37°C° 0 mm 4 mps 707 mmHg 14%
    16:00 +36°C° 0 mm 4 mps 707 mmHg 15%
    17:00 +35°C° 0 mm 4 mps 707 mmHg 16%
    18:00 +33°C° 0 mm 3 mps 707 mmHg 20%
    19:00 +31°C° 0 mm 3 mps 707 mmHg 24%
    20:00 +29°C° 0 mm 3 mps 707 mmHg 27%
    21:00 +29°C° 0 mm 3 mps 707 mmHg 28%
    22:00 +28°C° 0 mm 2 mps 707 mmHg 28%
    23:00 +27°C° 0 mm 2 mps 707 mmHg 29%

    Day after tomorrow, 28 September, Thursday

    Time Temperature Precipitation Wind Pressure Humidity
    00:00 +27°C° 0 mm 2 mps 707 mmHg 30%
    01:00 +26°C° 0 mm 2 mps 706 mmHg 31%
    02:00 +26°C° 0 mm 2 mps 706 mmHg 31%
    03:00 +25°C° 0 mm 2 mps 706 mmHg 33%
    04:00 +25°C° 0 mm 2 mps 706 mmHg 35%
    05:00 +24°C° 0 mm 3 mps 705 mmHg 37%
    06:00 +26°C° 0 mm 3 mps 706 mmHg 34%
    07:00 +27°C° 0 mm 3 mps 707 mmHg 31%
    08:00 +28°C° 0 mm 3 mps 707 mmHg 29%
    09:00 +30°C° 0 mm 4 mps 707 mmHg 24%
    10:00 +33°C° 0 mm 4 mps 707 mmHg 20%
    11:00 +34°C° 0 mm 4 mps 708 mmHg 16%
    12:00 +35°C° 0 mm 5 mps 707 mmHg 15%
    13:00 +36°C° 0 mm 5 mps 707 mmHg 14%
    14:00 +36°C° 0 mm 5 mps 706 mmHg 13%
    15:00 +36°C° 0 mm 5 mps 706 mmHg 15%
    16:00 +35°C° 0 mm 4 mps 706 mmHg 17%
    17:00 +34°C° 0 mm 4 mps 706 mmHg 19%
    18:00 +31°C° 0 mm 3 mps 706 mmHg 22%
    19:00 +30°C° 0 mm 3 mps 706 mmHg 26%
    20:00 +28°C° 0 mm 2 mps 706 mmHg 29%
    21:00 +28°C° 0 mm 2 mps 706 mmHg 30%
    22:00 +27°C° 0 mm 2 mps 706 mmHg 31%
    23:00 +27°C° 0 mm 2 mps 706 mmHg 32%

    29 September, Friday

    Time Temperature Precipitation Wind Pressure Humidity
    00:00 +26°C° 0 mm 2 mps 706 mmHg 33%
    01:00 +26°C° 0 mm 2 mps 706 mmHg 34%
    02:00 +25°C° 0 mm 3 mps 705 mmHg 35%
    03:00 +25°C° 0 mm 3 mps 705 mmHg 37%
    04:00 +24°C° 0 mm 3 mps 705 mmHg 39%
    05:00 +22°C° 0 mm 3 mps 705 mmHg 41%
    06:00 +25°C° 0 mm 3 mps 706 mmHg 38%
    07:00 +26°C° 0 mm 3 mps 706 mmHg 34%
    08:00 +27°C° 0 mm 3 mps 707 mmHg 31%
    09:00 +29°C° 0 mm 4 mps 707 mmHg 26%
    10:00 +32°C° 0 mm 5 mps 707 mmHg 21%
    11:00 +33°C° 0 mm 5 mps 707 mmHg 16%
    12:00 +34°C° 0 mm 5 mps 707 mmHg 15%
    13:00 +35°C° 0 mm 6 mps 706 mmHg 14%
    14:00 +36°C° 0 mm 6 mps 706 mmHg 13%
    15:00 +35°C° 0 mm 6 mps 706 mmHg 13%
    16:00 +34°C° 0 mm 6 mps 706 mmHg 14%
    17:00 +34°C° 0 mm 6 mps 706 mmHg 15%
    18:00 +32°C° 0 mm 5 mps 706 mmHg 18%
    19:00 +29°C° 0 mm 4 mps 706 mmHg 21%
    20:00 +28°C° 0 mm 4 mps 706 mmHg 24%
    21:00 +27°C° 0 mm 3 mps 706 mmHg 25%
    22:00 +26°C° 0 mm 3 mps 706 mmHg 26%
    23:00 +26°C° 0 mm 2 mps 706 mmHg 27%

    30 September, Saturday

    Time Temperature Precipitation Wind Pressure Humidity
    00:00 +25°C° 0 mm 2 mps 706 mmHg 28%
    01:00 +25°C° 0 mm 2 mps 706 mmHg 29%
    02:00 +24°C° 0 mm 2 mps 705 mmHg 30%
    03:00 +24°C° 0 mm 2 mps 705 mmHg 31%
    04:00 +23°C° 0 mm 2 mps 705 mmHg 32%
    05:00 +23°C° 0 mm 2 mps 705 mmHg 33%
    06:00 +24°C° 0 mm 3 mps 706 mmHg 32%
    07:00 +26°C° 0 mm 3 mps 706 mmHg 30%
    08:00 +27°C° 0 mm 3 mps 707 mmHg 28%
    09:00 +29°C° 0 mm 4 mps 707 mmHg 24%
    10:00 +30°C° 0 mm 4 mps 707 mmHg 21%
    11:00 +33°C° 0 mm 4 mps 707 mmHg 17%
    12:00 +33°C° 0 mm 4 mps 707 mmHg 16%
    13:00 +34°C° 0 mm 5 mps 706 mmHg 15%
    14:00 +35°C° 0 mm 5 mps 706 mmHg 15%
    15:00 +34°C° 0 mm 5 mps 706 mmHg 16%
    16:00 +33°C° 0 mm 5 mps 706 mmHg 17%
    17:00 +33°C° 0 mm 5 mps 706 mmHg 18%
    18:00 +30°C° 0 mm 4 mps 706 mmHg 21%
    19:00 +29°C° 0 mm 3 mps 706 mmHg 24%
    20:00 +28°C° 0 mm 3 mps 707 mmHg 27%
    21:00 +27°C° 0 mm 3 mps 706 mmHg 28%
    22:00 +26°C° 0 mm 3 mps 706 mmHg 29%
    23:00 +26°C° 0 mm 3 mps 706 mmHg 29%

    1 October, Sunday

    Time Temperature Precipitation Wind Pressure Humidity
    00:00 +25°C° 0 mm 2 mps 706 mmHg 30%
    01:00 +25°C° 0 mm 2 mps 706 mmHg 31%
    02:00 +24°C° 0 mm 2 mps 706 mmHg 31%
    03:00 +24°C° 0 mm 2 mps 706 mmHg 32%
    04:00 +23°C° 0 mm 2 mps 706 mmHg 33%
    05:00 +23°C° 0 mm 2 mps 706 mmHg 33%
    06:00 +25°C° 0 mm 2 mps 706 mmHg 31%
    07:00 +26°C° 0 mm 2 mps 707 mmHg 28%
    08:00 +28°C° 0 mm 2 mps 707 mmHg 25%
    09:00 +30°C° 0 mm 3 mps 708 mmHg 22%
    10:00 +33°C° 0 mm 3 mps 708 mmHg 18%
    11:00 +34°C° 0 mm 4 mps 708 mmHg 15%
    12:00 +35°C° 0 mm 4 mps 707 mmHg 14%
    13:00 +36°C° 0 mm 5 mps 707 mmHg 14%
    14:00 +37°C° 0 mm 5 mps 707 mmHg 13%
    15:00 +36°C° 0 mm 5 mps 706 mmHg 14%
    16:00 +35°C° 0 mm 5 mps 706 mmHg 15%
    17:00 +35°C° 0 mm 6 mps 706 mmHg 17%
    18:00 +33°C° 0 mm 5 mps 706 mmHg 18%
    19:00 +32°C° 0 mm 4 mps 706 mmHg 20%
    20:00 +29°C° 0 mm 3 mps 706 mmHg 22%
    21:00 +29°C° 0 mm 3 mps 706 mmHg 22%
    22:00 +28°C° 0 mm 3 mps 706 mmHg 22%
    23:00 +28°C° 0 mm 2 mps 706 mmHg 23%
    Show more